Date String (YYYY-MM-DD hh:mm:ss) UTC,Instrument flags,Ambient pressure (hPa),Sample flow (lpm),Bypass flow (lpm),Sample temperature (°C),Ambient temperature (°C),ASC tube jacket temperature (°C),LED temperature (°C),Box temperature (°C),Sample RH (%),Span deviation,Mass concentration (μg/m³),Mass concentration (μg/m³),Mass concentration (μg/m³)
DateTimeUTC,F1_M11,P_M11,Q1_M11,Q2_M11,T1_M11,T2_M11,T3_M11,T4_M11,T5_M11,U1_M11,ZSPAN_M11,X0_M11,X2_M11,X1_M11
2022-05-05 15:00:00,,0825.9,5.00,0.00,24.1,23.4,00.0,33.1,25.9,23.7,0000.0,0005.05,0003.06,0002.43
2022-05-05 15:01:00,,0825.9,5.01,0.00,24.1,23.4,00.0,33.1,25.9,23.3,0000.0,0005.19,0003.07,0002.42
2022-05-05 15:02:00,,0825.9,5.00,0.00,24.1,23.4,00.0,33.1,25.9,23.9,0000.0,0005.36,0003.12,0002.43
2022-05-05 15:03:00,,0825.9,5.01,0.00,24.1,23.4,00.0,33.1,25.9,23.8,0000.0,0005.29,0003.10,0002.43
2022-05-05 15:04:00,,0825.9,4.99,0.00,24.1,23.4,00.0,33.1,25.9,23.6,0000.0,0005.33,0003.13,0002.45
2022-05-05 15:05:00,,0825.9,5.00,0.00,24.1,23.4,00.0,33.1,25.9,23.9,0000.0,0005.27,0003.13,0002.46
2022-05-05 15:06:00,,0825.9,5.01,0.00,24.1,23.4,00.0,33.1,25.9,24.3,0000.0,0005.46,0003.18,0002.47
2022-05-05 15:07:00,,0825.9,5.00,0.00,24.1,23.4,00.0,33.1,25.9,24.6,0000.0,0005.37,0003.23,0002.50
2022-05-05 15:08:00,,0825.8,5.00,0.00,24.1,23.4,00.0,33.1,25.9,25.2,0000.0,0005.32,0003.26,0002.55
2022-05-05 15:09:00,,0825.8,5.00,0.00,24.1,23.4,00.0,33.1,25.9,25.1,0000.0,0005.46,0003.30,0002.57
2022-05-05 15:10:00,,0825.8,5.00,0.00,24.1,23.4,00.0,33.1,25.9,25.2,0000.0,0005.40,0003.29,0002.58
2022-05-05 15:11:00,,0825.8,5.00,0.00,24.1,23.4,00.0,33.1,25.9,24.2,0000.0,0005.60,0003.32,0002.59
2022-05-05 15:12:00,,0825.9,5.00,0.00,24.1,23.4,00.0,33.1,25.9,24.3,0000.0,0005.55,0003.33,0002.58
2022-05-05 15:13:00,,0825.9,4.99,0.00,24.1,23.4,00.0,33.1,25.9,24.2,0000.0,0005.52,0003.33,0002.56
2022-05-05 15:14:00,,0825.8,5.01,0.00,24.1,23.4,00.0,33.1,25.9,23.7,0000.0,0005.46,0003.30,0002.53
2022-05-05 15:15:00,,0825.9,5.00,0.00,24.1,23.4,00.0,33.1,25.9,23.5,0000.0,0005.28,0003.26,0002.50
2022-05-05 15:16:00,,0825.9,4.99,0.00,24.1,23.4,00.0,33.1,25.9,23.5,0000.0,0005.18,0003.23,0002.46
2022-05-05 15:17:00,,0825.8,5.00,0.00,24.1,23.4,00.0,33.1,25.9,23.3,0000.0,0004.88,0003.16,0002.39
2022-05-05 15:18:00,,0825.7,5.01,0.00,24.1,23.4,00.0,33.1,25.9,23.4,0000.0,0004.48,0003.01,0002.32
2022-05-05 15:19:00,,0825.8,4.99,0.00,24.1,23.4,00.0,33.1,25.9,23.8,0000.0,0004.27,0002.87,0002.25
2022-05-05 15:20:00,,0825.7,5.00,0.00,24.1,23.4,00.0,33.0,25.9,23.1,0000.0,0004.01,0002.75,0002.18
2022-05-05 15:21:00,,0825.7,5.01,0.00,24.1,23.4,00.0,33.0,25.9,23.2,0000.0,0003.87,0002.66,0002.13
2022-05-05 15:22:00,,0825.7,5.00,0.00,24.1,23.4,00.0,33.0,25.9,23.1,0000.0,0003.72,0002.60,0002.09
2022-05-05 15:23:00,,0825.7,5.00,0.00,24.0,23.4,00.0,33.0,25.9,22.9,0000.0,0003.72,0002.54,0002.05
2022-05-05 15:24:00,,0825.7,4.99,0.00,24.0,23.4,00.0,33.0,25.8,23.6,0000.0,0005.21,0002.49,0002.03
2022-05-05 15:25:00,,0825.8,5.01,0.00,24.0,23.4,00.0,33.0,25.8,23.3,0000.0,0006.78,0002.49,0002.02
2022-05-05 15:26:00,,0825.7,4.99,0.00,24.0,23.3,00.0,33.0,25.7,23.5,0000.0,0006.73,0002.48,0002.03
2022-05-05 15:27:00,,0825.7,5.00,0.00,24.0,23.3,00.0,33.0,25.7,24.1,0000.0,0006.69,0002.46,0002.04
2022-05-05 15:28:00,,0825.7,5.01,0.00,24.0,23.3,00.0,33.0,25.8,24.3,0000.0,0006.75,0002.50,0002.07
2022-05-05 15:29:00,,0825.7,4.99,0.00,24.0,23.3,00.0,33.0,25.8,24.2,0000.0,0006.91,0002.60,0002.13
2022-05-05 15:30:00,,0825.7,5.00,0.00,24.0,23.3,00.0,33.0,25.7,24.2,0000.0,0007.14,0002.72,0002.19
2022-05-05 15:31:00,,0825.7,5.01,0.00,24.0,23.3,00.0,33.0,25.8,24.4,0000.0,0007.23,0002.79,0002.25
2022-05-05 15:32:00,,0825.7,5.00,0.00,24.0,23.4,00.0,33.0,25.8,24.8,0000.0,0007.35,0002.92,0002.36
2022-05-05 15:33:00,,0825.7,4.99,0.00,24.0,23.3,00.0,33.0,25.8,24.3,0000.0,0007.52,0003.09,0002.47
2022-05-05 15:34:00,,0825.7,5.00,0.00,24.0,23.3,00.0,33.0,25.8,24.5,0000.0,0007.66,0003.20,0002.59
2022-05-05 15:35:00,,0825.7,5.00,0.00,24.0,23.4,00.0,33.0,25.9,24.2,0000.0,0006.87,0003.25,0002.67
2022-05-05 15:36:00,,0825.7,5.00,0.00,24.0,23.3,00.0,33.0,25.9,23.2,0000.0,0005.72,0003.32,0002.73
2022-05-05 15:37:00,,0825.7,5.00,0.00,24.0,23.3,00.0,33.0,25.8,24.0,0000.0,0006.37,0003.41,0002.81
2022-05-05 15:38:00,,0825.7,5.00,0.00,24.0,23.4,00.0,33.0,25.9,25.0,0000.0,0006.78,0003.47,0002.88
2022-05-05 15:39:00,,0825.7,5.00,0.00,24.0,23.4,00.0,33.0,25.9,24.0,0000.0,0008.20,0003.50,0002.91
2022-05-05 15:40:00,,0825.7,4.99,0.00,24.0,23.5,00.0,33.0,26.0,24.8,0000.0,0009.88,0003.55,0002.96
2022-05-05 15:41:00,,0825.7,5.00,0.00,24.1,23.5,00.0,33.0,26.0,24.5,0000.0,0010.61,0003.56,0003.00
2022-05-05 15:42:00,,0825.6,5.00,0.00,24.1,23.5,00.0,33.0,26.0,24.7,0000.0,0010.95,0003.59,0003.03
2022-05-05 15:43:00,,0825.6,5.01,0.00,24.1,23.5,00.0,33.0,26.0,24.6,0000.0,0011.39,0003.60,0003.03
2022-05-05 15:44:00,,0825.6,5.00,0.00,24.1,23.5,00.0,33.0,26.0,25.3,0000.0,0011.33,0003.57,0003.01
2022-05-05 15:45:00,,0825.7,4.99,0.00,24.1,23.6,00.0,33.0,26.0,25.7,0000.0,0011.32,0003.57,0003.03
2022-05-05 15:46:00,,0825.7,5.00,0.00,24.1,23.6,00.0,33.0,26.0,25.4,0000.0,0011.37,0003.58,0003.05
2022-05-05 15:47:00,,0825.7,5.01,0.00,24.2,23.6,00.0,33.0,26.1,25.2,0000.0,0011.12,0003.57,0003.08
2022-05-05 15:48:00,,0825.7,5.01,0.00,24.2,23.6,00.0,33.0,26.1,24.7,0000.0,0010.82,0003.54,0003.09
2022-05-05 15:49:00,,0825.7,5.00,0.00,24.2,23.6,00.0,33.1,26.1,24.1,0000.0,0010.90,0003.52,0003.07
2022-05-05 15:50:00,,0825.7,5.00,0.00,24.2,23.6,00.0,33.1,26.1,24.9,0000.0,0009.82,0003.52,0003.04
2022-05-05 15:51:00,,0825.7,4.99,0.00,24.2,23.7,00.0,33.1,26.1,24.6,0000.0,0008.21,0003.46,0002.99
2022-05-05 15:52:00,,0825.7,5.00,0.00,24.2,23.7,00.0,33.1,26.1,24.7,0000.0,0007.66,0003.45,0002.93
2022-05-05 15:53:00,,0825.7,5.00,0.00,24.2,23.7,00.0,33.1,26.1,24.6,0000.0,0007.78,0003.41,0002.86
2022-05-05 15:54:00,,0825.7,4.99,0.00,24.2,23.7,00.0,33.1,26.1,24.2,0000.0,0007.67,0003.33,0002.76
2022-05-05 15:55:00,,0825.7,5.00,0.00,24.2,23.7,00.0,33.1,26.2,24.2,0000.0,0007.61,0003.26,0002.67
2022-05-05 15:56:00,,0825.6,5.00,0.00,24.2,23.7,00.0,33.1,26.1,24.2,0000.0,0007.75,0003.20,0002.57
2022-05-05 15:57:00,,0825.6,4.99,0.00,24.2,23.7,00.0,33.1,26.1,24.6,0000.0,0007.90,0003.14,0002.48
2022-05-05 15:58:00,,0825.6,5.00,0.00,24.2,23.7,00.0,33.1,26.1,24.6,0000.0,0007.89,0003.10,0002.39
2022-05-05 15:59:00,,0825.6,5.02,0.00,24.3,23.7,00.0,33.1,26.2,24.3,0000.0,0008.12,0003.06,0002.34
